This is the latest recevied weather packets stored in our database for station/object F4ELU-13. If no packets are shown the sender has not sent any weather packets the latest 10 day(s).
| Time | Temp. | Humidity | Pressure | Rain* | Wind** | Luminosity | Snow |
|---|---|---|---|---|---|---|---|
| 1777524303 | 9.44° C | 75% | 1016.2 hPa | 0 mm | - | - | - |
| 1777523764 | 10° C | 74% | 1016.3 hPa | 0 mm | - | - | - |
| 1777523223 | 10° C | 74% | 1016.3 hPa | 0 mm | - | - | - |
| 1777522683 | 10° C | 74% | 1016.3 hPa | 0 mm | - | - | - |
| 1777522144 | 10° C | 75% | 1016.2 hPa | 0 mm | - | - | - |
| 1777521603 | 10° C | 74% | 1016.3 hPa | 0 mm | - | - | - |
| 1777521243 | 10° C | 75% | 1016.2 hPa | 0 mm | - | - | - |
| 1777520703 | 10° C | 75% | 1016.2 hPa | 0 mm | - | - | - |
| 1777520163 | 10° C | 76% | 1016.2 hPa | 0 mm | - | - | - |
| 1777519623 | 10° C | 76% | 1016.3 hPa | 0 mm | - | - | - |
| 1777519083 | 10.56° C | 76% | 1016.3 hPa | 0 mm | - | - | - |
| 1777518544 | 10.56° C | 75% | 1016.4 hPa | 0 mm | - | - | - |
| 1777518003 | 10.56° C | 74% | 1016.2 hPa | 0 mm | - | - | - |
| 1777517643 | 10.56° C | 75% | 1016.2 hPa | 0 mm | - | - | - |
| 1777517103 | 11.11° C | 75% | 1016.2 hPa | 0 mm | - | - | - |
| 1777516563 | 11.11° C | 74% | 1016.2 hPa | 0 mm | - | - | - |
| 1777516023 | 11.67° C | 74% | 1016 hPa | 0 mm | - | - | - |
| 1777515483 | 11.11° C | 75% | 1016 hPa | 0 mm | - | - | - |
| 1777514944 | 10.56° C | 78% | 1016.1 hPa | 0 mm | - | - | - |
| 1777514403 | 10° C | 80% | 1016.1 hPa | 0 mm | - | - | - |
| 1777514043 | 10° C | 81% | 1016 hPa | 0 mm | - | - | - |
| 1777513503 | 9.44° C | 83% | 1016.1 hPa | 0 mm | - | - | - |
| 1777512963 | 10° C | 81% | 1016 hPa | 0 mm | - | - | - |
| 1777512423 | 10° C | 82% | 1016 hPa | 0 mm | - | - | - |
| 1777511883 | 10.56° C | 80% | 1015.9 hPa | 0 mm | - | - | - |
* Rain latest hour (hover to see other rain measurements)
** Current wind speed in m/s (hover to see current wind gust speed)